Weather History for KBVE - July, 2013

Change the Weather History Date:

Thursday, July 4, 2013

  Actual Average Record
Temperature  
Mean Temperature 81 °F -  
Max Temperature 86 °F - - ()
Min Temperature 78 °F - - ()
Cooling Degree Days 16    
Growing Degree Days 31 (Base 50)    
Moisture  
Dew Point 75 °F    
Average Humidity 79    
Maximum Humidity 90    
Minimum Humidity 67    
Precipitation  
Precipitation 0.00 in - - ()
Sea Level Pressure  
Sea Level Pressure 29.95 in    
Wind  
Wind Speed 4 mph (ESE)    
Max Wind Speed 15 mph    
Max Gust Speed 22 mph    
Visibility 10 miles    
Events Rain    
T = Trace of Precipitation, MM = Missing Value Source: NWS Daily Summary

Daily Weather History Graph

Daily Weather History Graph

Search for Another Location

Airport or City:

Trip Planner

Search our weather history database for the weather conditions in past years. The results will help you decide how hot, cold, wet, or windy it might be!

Date:

Astronomy

Jul. 04, 2013 Rise Set
Actual Time 6:03 AM CDT 8:01 PM CDT
Civil Twilight 5:36 AM CDT 8:28 PM CDT
Nautical Twilight 5:03 AM CDT 9:00 PM CDT
Astronomical Twilight 4:28 AM CDT 9:35 PM CDT
Moon 3:13 AM CDT (7/4) 5:10 PM CDT (7/4)
Length of Visible Light 14h 52m
Length of Day
13h 58m
Waning Crescent, 11% of the Moon is Illuminated
Jul 4
Waning Crescent
Jul 8
New
Jul 15
First Quarter
Jul 22
Full
Jul 29
Last Quarter

Hourly Weather History & Observations

Time (CDT) Temp. Heat Index Dew Point Humidity Pressure Visibility Wind Dir Wind Speed Gust Speed Precip Events Conditions
12:51 AM 78.1 °F - 73.9 °F 87% 29.94 in 10.0 mi Calm Calm - N/A   Partly Cloudy
1:51 AM 78.1 °F - 73.9 °F 87% 29.94 in 10.0 mi Calm Calm - N/A   Scattered Clouds
2:51 AM 79.0 °F - 73.9 °F 84% 29.92 in 10.0 mi Calm Calm - N/A   Partly Cloudy
3:51 AM 78.1 °F - 73.9 °F 87% 29.92 in 10.0 mi Calm Calm - N/A   Partly Cloudy
4:51 AM 79.0 °F - 75.0 °F 88% 29.92 in 10.0 mi Calm Calm - N/A   Clear
5:51 AM 78.1 °F - 75.0 °F 90% 29.93 in 10.0 mi Calm Calm - N/A   Clear
6:51 AM 80.1 °F 85.1 °F 75.0 °F 85% 29.93 in 10.0 mi NNW 3.5 mph - N/A   Clear
7:51 AM 82.0 °F 88.6 °F 75.0 °F 79% 29.94 in 10.0 mi North 3.5 mph - N/A   Partly Cloudy
8:51 AM 82.9 °F 90.2 °F 75.0 °F 77% 29.95 in 10.0 mi Calm Calm - N/A   Clear
9:51 AM 84.0 °F 91.2 °F 73.9 °F 72% 29.95 in 10.0 mi Calm Calm - N/A   Clear
10:51 AM 84.9 °F 92.1 °F 73.9 °F 69% 29.96 in 10.0 mi Variable 4.6 mph - N/A   Clear
11:51 AM 84.9 °F 91.4 °F 73.0 °F 67% 29.98 in 10.0 mi NE 3.5 mph - N/A   Mostly Cloudy
12:51 PM 84.9 °F 94.1 °F 75.9 °F 74% 29.97 in 10.0 mi Variable 6.9 mph - N/A   Partly Cloudy
1:51 PM 84.9 °F 94.1 °F 75.9 °F 74% 29.96 in 10.0 mi NE 8.1 mph - N/A   Clear
2:51 PM 84.9 °F 93.3 °F 75.0 °F 72% 29.95 in 10.0 mi NE 6.9 mph - N/A   Clear
3:51 PM 84.9 °F 93.3 °F 75.0 °F 72% 29.95 in 10.0 mi ENE 6.9 mph - N/A   Partly Cloudy
4:51 PM 84.9 °F 94.1 °F 75.9 °F 74% 29.95 in 10.0 mi East 9.2 mph - N/A   Clear
5:51 PM 84.0 °F 91.9 °F 75.0 °F 74% 29.94 in 10.0 mi East 9.2 mph - N/A   Partly Cloudy
6:47 PM 84.2 °F 90.9 °F 73.4 °F 70% 29.94 in 10.0 mi SE 5.8 mph - N/A   Partly Cloudy
6:51 PM 84.0 °F 91.2 °F 73.9 °F 72% 29.94 in 10.0 mi SE 8.1 mph - N/A   Scattered Clouds
7:10 PM 82.4 °F 89.5 °F 75.2 °F 79% 29.95 in 10.0 mi SE 9.2 mph - 0.00 in   Mostly Cloudy
7:19 PM 82.4 °F 89.5 °F 75.2 °F 79% 29.95 in 10.0 mi SE 9.2 mph - 0.00 in   Overcast
7:51 PM 82.0 °F 87.9 °F 73.9 °F 76% 29.95 in 10.0 mi SE 8.1 mph - 0.00 in   Scattered Clouds
7:59 PM 82.4 °F 89.5 °F 75.2 °F 79% 29.95 in 10.0 mi SSE 8.1 mph - N/A   Partly Cloudy
8:51 PM 82.0 °F 89.4 °F 75.9 °F 82% 29.97 in 10.0 mi SSE 11.5 mph 19.6 mph N/A   Scattered Clouds
9:51 PM 82.0 °F 90.2 °F 77.0 °F 85% 29.98 in 10.0 mi SSE 15.0 mph 19.6 mph 0.00 in   Partly Cloudy
10:51 PM 82.0 °F 89.4 °F 75.9 °F 82% 29.99 in 10.0 mi South 11.5 mph - N/A   Scattered Clouds
11:06 PM 82.4 °F 90.9 °F 77.0 °F 84% 29.99 in 10.0 mi SSE 10.4 mph - N/A   Mostly Cloudy
11:30 PM 82.4 °F 89.5 °F 75.2 °F 79% 29.99 in 10.0 mi SSE 15.0 mph 21.9 mph 0.00 in Rain Light Rain
11:51 PM 82.0 °F 88.6 °F 75.0 °F 79% 29.98 in 10.0 mi South 13.8 mph 20.7 mph 0.00 in   Partly Cloudy